Regional Weather Roundup
Issued by NWS Upton, NY

Current Version | Previous Version | Graphics & Text | Print | Product List | Glossary Off
Versions: 1 2 3 4 5 6 7 8 9 10 11 12 13 14 15 16 17 18 19 20 21 22 23 24 25 26 27 28 29 30 31 32 33 34 35 36 37 38 39 40 41 42 43 44 45 46 47 48 49 50
000 ASUS41 KOKX 021104 RWROKX REGIONAL WEATHER ROUNDUP NATIONAL WEATHER SERVICE NEW YORK NY 700 AM EDT WED SEP 02 2015 NOTE: "FAIR" INDICATES FEW OR NO CLOUDS BELOW 12,000 FEET WITH NO SIGNIFICANT WEATHER AND/OR OBSTRUCTIONS TO VISIBILITY. NYZ071-072-176-178-NJZ106-104-021200- NEW YORK CITY METRO AREA CITY SKY/WX TMP DP RH WIND PRES REMARKS CENTRAL PARK CLEAR 75 65 70 CALM 30.05S LAGUARDIA APRT PTCLDY 75 66 73 S5 30.02R KENNEDY INTL PTCLDY 72 69 90 SW3 30.04R NEWARK/LIBERTY PTCLDY 72 68 87 CALM 30.03R BRNX BOT. GARD N/A 70 64 83 NE1 30.05R TETERBORO CLEAR 70 64 81 CALM 30.02R $$ NYZ177-179-078>081-021200- LONG ISLAND NEW YORK CITY SKY/WX TMP DP RH WIND PRES REMARKS FARMINGDALE CLEAR 69 67 93 CALM 30.03S FOG ISLIP FOG 68 67 96 CALM 30.02R VSB 1/2 SHIRLEY FOG 66 65 96 CALM 30.04R VSB<1/4 WESTHAMPTON FOG 67 66 97 CALM 30.05R VSB<1/4 MONTAUK POINT N/A 71 69 93 CALM 30.05R $$ NYZ052-065-067-021200- HUDSON VALLEY CITY SKY/WX TMP DP RH WIND PRES REMARKS WHITE PLAINS CLEAR 68 65 90 CALM 30.04R FOG NEWBURGH PTCLDY 66 63 88 CALM 30.05R MONTGOMERY PTCLDY 61 60 97 CALM 30.04R FOG POUGHKEEPSIE CLEAR 60 57 89 CALM 30.03R ALBANY CLEAR 64 60 87 CALM 30.03R $$ NJZ001-105-106-008-010-013-015-019>022-104-021200- NEW JERSEY CITY SKY/WX TMP DP RH WIND PRES REMARKS NEWARK/LIBERTY PTCLDY 72 68 87 CALM 30.03R TETERBORO CLEAR 70 64 81 CALM 30.02R CALDWELL CLEAR 65 62 90 CALM 30.04R FOG MORRISTOWN PTCLDY 64 64 100 CALM 30.04R SOMERVILLE PTCLDY 62 60 93 CALM 30.03R FOG SUSSEX CLEAR 58 57 97 CALM 30.05R FOG ANDOVER N/A 61 60 97 CALM 30.06R TRENTON FOG 70 69 97 CALM 30.04R VSB<1/4 MILLVILLE FOG 67 66 97 CALM 30.04R VSB 1/4 ATLANTIC CITY FOG 69 69 100 CALM 30.04R VSB<1/4 WRIGHTSTOWN FOG 68 68 100 CALM 30.02R VSB 1/4 TOMS RIVER CLOUDY 68 66 94 CALM 30.05R VSB<1/4 BELMAR CLOUDY 70 63 78 CALM 30.04S VSB<1/4 $$ PAZ047>061-062-071-021200- EASTERN PENNSYLVANIA CITY SKY/WX TMP DP RH WIND PRES REMARKS PHILADELPHIA MOCLDY 74 69 85 VRB5 30.04R FOG ALLENTOWN CLEAR 64 62 93 CALM 30.05R FOG SCRANTON CLEAR 64 60 87 CALM 30.07R FOG $$ CTZ002-004>006-009-010-012-RIZ004-006-007-MAZ004-011-015-021200- SOUTHERN NEW ENGLAND IN CT CITY SKY/WX TMP DP RH WIND PRES REMARKS BRADLEY INTL PTCLDY 60 58 92 CALM 30.02R HARTFORD CLEAR 67 65 93 CALM 30.02R DANBURY CLEAR 61 57 87 CALM 30.06R FOG WTRBRY/OXFORD CLEAR 63 55 77 CALM 30.06R FOG BRIDGEPORT CLEAR 69 65 86 CALM 30.03R MERIDEN CLEAR 62 59 90 CALM 30.03R FOG NEW HAVEN CLEAR 64 63 96 CALM 30.03S CHESTER NOT AVBL GROTON MOCLDY 69 68 96 CALM 30.03R FOG WILLIMANTIC FOG 63 61 93 CALM 30.04R VSB 1/4 IN RI CITY SKY/WX TMP DP RH WIND PRES REMARKS PROVIDENCE MOCLDY 66 65 96 S3 30.03R FOG BLOCK ISLAND CLEAR 70 70 100 SW7 30.04R WESTERLY FOG 62 61 96 CALM 30.04R VSB<1/4 IN MA CITY SKY/WX TMP DP RH WIND PRES REMARKS BOSTON CLEAR 67 63 87 SW9 30.00S WORCESTER CLEAR 65 61 87 W9 30.04R WESTFIELD CLEAR 59 57 93 CALM 30.03R PROVINCETOWN N/A 68 63 83 SW9 30.01S NANTUCKET CLEAR 68 65 90 S6 30.03S $$ ANZ330-335-338-340-345-350-353-355-021200- COASTAL MARINE OBSERVATIONS STATION/POSITION TIME SKY/WX TEMP WIND PRES VSBY WAVE AIR SEA DIR/SP/G HT/PER (UTC) (F) (DEG/KT/KT) (MB) (MI) (FT/S) NY HARB ENTRANCE 0950 75 76 230/ 2/ 4 1016.5 1/ 8 4S FIRE IS NOT AVBL 20S FIRE ISLAND 0950 73 74 170/ 2/ 2 1016.6 2/ 8 GREAT SOUTH BAY 1000 74 78 250/ 4/ 6 N/A 23SW MTP 1050 72 72 280/ 2/ 2 1016.7 2/ 8 HUDSON CANYON NOT AVBL KINGS POINT 1000 72 74 180/ 2/ 3 1015.9 EXECUTION ROCKS 1000 72 210/ 2/ 2 N/A CENTRAL LI SOUND NOT AVBL EASTERN LI SOUND 1000 71 70 240/ 4/ 4 N/A ROBBINS REEF 1000 73 190/ 6/ 7 1015.6 $$ >>>>>>>>>>>>>>>>>>>>>>>>>>>> KEY <<<<<<<<<<<<<<<<<<<<<<<<<<< > < > SKY/WX - SKY CONDITION/PRESENT WEATHER < > TMP - TEMPERATURE IN FAHRENHEIT < > DP - DEWPOINT IN FAHRENHEIT < > RH - RELATIVE HUMIDITY IN PERCENT < > WIND - DIRECTION AND SPEED IN MPH < > PRES - MEAN SEA LEVEL PRESSURE IN INCHES OF HG < > WCI - WIND CHILL INDEX < > VSB - VISIBILITY IN MILES < > HX - HEAT INDEX < > TC - TEMPERATURE IN CELSIUS < > VRB - VARIABLE WIND DIRECTION < > < >>>>>>>>>>>>>>>>>>>>>>>>>>>> KEY <<<<<<<<<<<<<<<<<<<<<<<<<<<

USA.gov is the U.S. government's official web portal to all federal, state and local government web resources and services.